Location: Oroua River
(40.4333°S, 175.4333°E)
Time: 15:17:33
(UTC+00:00)

Cosmos 2369 Rocket - Pass Details

Date: 03 February 2023
Orbit: 829 x 852 km, 71.0° (Epoch: 22 March)

Event Time Altitude Azimuth Distance (km) Brightness Sun altitude
Exits shadow 14:03:45 46° 235° (SW) 1,147 2.8 -29.2°
Drops below altitude 10° 14:09:06 10° 168° (SSE) 2,510 5.5 -28.8°
Sets 14:11:42 0° 161° (SSE) 3,454 6.6 -28.6°
